Weather History for Aspen, CO

Change the Weather History Date:

Thursday, January 23, 2014

  Actual Average Record
Temperature  
Mean Temperature 20 °F 20 °F  
Max Temperature 33 °F 33 °F 50 °F (1981)
Min Temperature 7 °F 7 °F -6 °F (2006)
Degree Days  
Heating Degree Days 45 45  
Month to date heating degree days 1024 1038  
Since 1 July heating degree days 4739 4759  
Cooling Degree Days 0 0  
Month to date cooling degree days 0 0  
Year to date cooling degree days 0 0  
Moisture  
Dew Point 4 °F    
Average Humidity 52    
Maximum Humidity 69    
Minimum Humidity 35    
Precipitation  
Precipitation 0.00 in 0.04 in 0.36 in (1993)
Month to date precipitation 0.33 0.80  
Year to date precipitation 0.33 0.80  
Sea Level Pressure  
Sea Level Pressure 30.29 in    
Wind  
Wind Speed 6 mph (SW)    
Max Wind Speed 12 mph    
Max Gust Speed 14 mph    
Visibility 10 miles    
Events      
T = Trace of Precipitation, MM = Missing Value Source: NWS Daily Summary

Daily Weather History Graph

Daily Weather History Graph

Search for Another Location

Airport:

Trip Planner

Search our weather history database for the weather conditions in past years. The results will help you decide how hot, cold, wet, or windy it might be!

Date:

Astronomy

Jan. 23, 2014 Rise Set
Actual Time 7:21 AM MST 5:17 PM MST
Civil Twilight 6:52 AM MST 5:46 PM MST
Nautical Twilight 6:19 AM MST 6:19 PM MST
Astronomical Twilight 5:48 AM MST 6:51 PM MST
Moon No Moon Rise 11:01 AM MST (1/23)
Length of Visible Light 10h 54m
Length of Day
9h 56m
Waning Gibbous, 54% of the Moon is Illuminated
Jan 23
Waning Gibbous
Jan 23
Last Quarter
Jan 30
New
Feb 6
First Quarter
Feb 14
Full

Hourly Weather History & Observations

Time (MST) Temp. Windchill Dew Point Humidity Pressure Visibility Wind Dir Wind Speed Gust Speed Precip Events Conditions
12:53 AM 15.1 °F 7.7 °F 5.0 °F 64% 30.01 in 10.0 mi SSW 4.6 mph - N/A   Clear
1:53 AM 15.1 °F 4.2 °F 3.0 °F 59% 30.00 in 10.0 mi South 8.1 mph - N/A   Clear
2:53 AM 12.9 °F 2.6 °F 1.9 °F 62% 30.02 in 10.0 mi South 6.9 mph - N/A   Clear
3:53 AM 12.0 °F 1.5 °F 1.0 °F 61% 30.04 in 10.0 mi South 6.9 mph - N/A   Clear
4:53 AM 8.1 °F -0.5 °F -0.9 °F 67% 30.12 in 10.0 mi SSW 4.6 mph - N/A   Clear
5:53 AM 8.1 °F -3.2 °F -0.9 °F 67% 30.21 in 10.0 mi SSW 6.9 mph - N/A   Clear
6:53 AM 12.0 °F 5.9 °F 1.9 °F 64% 30.23 in 10.0 mi SSE 3.5 mph - N/A   Mostly Cloudy
7:53 AM 14.0 °F 5.1 °F 3.9 °F 64% 30.25 in 10.0 mi South 5.8 mph - N/A   Mostly Cloudy
8:53 AM 19.9 °F - 6.1 °F 55% 30.26 in 10.0 mi Calm Calm - N/A   Partly Cloudy
9:53 AM 24.1 °F 18.2 °F 6.1 °F 46% 30.26 in 10.0 mi North 4.6 mph - N/A   Clear
10:53 AM 26.1 °F 19.4 °F 9.0 °F 49% 30.29 in 10.0 mi North 5.8 mph - N/A   Clear
11:53 AM 30.0 °F 21.7 °F 10.0 °F 43% 30.29 in 10.0 mi NNW 9.2 mph - N/A   Clear
12:53 PM 30.9 °F 23.5 °F 10.9 °F 43% 30.28 in 10.0 mi NNW 8.1 mph - N/A   Clear
1:53 PM 32.0 °F 25.6 °F 10.9 °F 42% 30.27 in 10.0 mi North 6.9 mph - N/A   Clear
2:53 PM 32.0 °F 24.8 °F 8.1 °F 37% 30.29 in 10.0 mi NNW 8.1 mph - N/A   Clear
3:53 PM 28.9 °F 21.9 °F 5.0 °F 36% 30.33 in 10.0 mi NW 6.9 mph - N/A   Clear
4:53 PM 25.0 °F - 3.9 °F 41% 30.39 in 10.0 mi Calm Calm - N/A   Clear
5:53 PM 19.0 °F 11.1 °F 5.0 °F 54% 30.45 in 10.0 mi SSW 5.8 mph - N/A   Clear
6:53 PM 18.0 °F 7.7 °F 3.9 °F 54% 30.48 in 10.0 mi SSW 8.1 mph - N/A   Clear
7:53 PM 18.0 °F 6.1 °F 3.9 °F 54% 30.50 in 10.0 mi SW 10.4 mph - N/A   Clear
8:53 PM 16.0 °F 5.3 °F 1.9 °F 54% 30.50 in 10.0 mi SW 8.1 mph - N/A   Clear
9:53 PM 14.0 °F 2.9 °F 1.9 °F 59% 30.52 in 10.0 mi SSW 8.1 mph - N/A   Clear
10:53 PM 12.0 °F 1.5 °F -0.0 °F 59% 30.52 in 10.0 mi SSW 6.9 mph - N/A   Clear
11:53 PM 8.1 °F -2.0 °F -2.0 °F 64% 30.54 in 10.0 mi SSW 5.8 mph - N/A   Clear